THOR ABLESTAR DEB, 1608

Orbit data source: Space-Track

THOR ABLESTAR DEB, 1608 is space debris in LEO originally from a launch on Sun, 13 Dec 1964 UTC launched from the Air Force Western Test Range (AFWTR). Debris objects in space refer to the collection of defunct objects orbiting the Earth. Examples of debris include non-operational satellites, rocket bodies, and fragments generated from explosions, collisions, or faulty payload assembly.

Loading next visibility...
Identifier
1608, 1964-083H
Orbit
LEO
Country
Flag of USUS
Related business
Manufacturer
Unknown
Mission
Spacecraft
Bus & Motor
Unknown
Mass
Unknown
Launch date (UTC)
1964-12-13 (61 years ago)
Launch vehicle
Unknown
Launch site
Air Force Western Test Range (AFWTR)
Object type
Payload
Rocket body
Debris
Shape & HBR
Unknown
Radar Cross Section
Small (<0.1 m²)

Expand to show TLE details & history
Last TLE update: 19 hours ago

TLE from 19 hours ago
0 THOR ABLESTAR DEB
1 01608U 64083H   25261.45238343  .00000847  00000-0  73123-3 0  9992
2 01608  89.7542  73.2836 0016090 220.7135 199.7192 13.85613800 37280
Epoch: 2025-09-18T10:51Z
TLE epoch observation values (Epoch: 2025-09-18T10:51:25.928Z)
Latitude
60.46039°
Longitude
-86.75671°
Altitude
965.534 km
Speed
7.369 km/s
True Right ascension
04h 54m 51s
True Declination
60° 19' 01"
Sunlit
Object was in daylight at epoch
Visualization orbit readout
Latitude
Unknown
Longitude
Unknown
Altitude
Unknown
Speed
Unknown
Apparent Right ascension
Unknown
Apparent Declination
Unknown
Sunlit
N/A
Visualization observer readout
Local Sidereal Time
22:25:17
Azimuth
Unknown
Elevation
Unknown
Doppler factor
Unknown
Orbital elements
Apogee altitude
952.817 km
Perigee altitude
929.264 km
Semi-major axis
7,319.178 km
Eccentricity
0.00161
Inclination
89.7542°
RAAN
73.2836°
Arg. of periapsis
220.7135°
True anomaly
199.65711°
Mean anomaly
199.7192°
Eccentric anomaly
199.68814°
Mean motion
3.46617 °/min
Orbital period
103.86 mins
BSTAR
0.00073123
Loading maneuver chart data...
Computing Atmospheric mass density...

Documentation

Showing up to 5 results
|